Location: Clanezzo
(45.7500°N, 9.6000°E)
Time: 19:57:04
(UTC+00:00)

Cosmos 773 Rocket - Pass Details

Date: 05 October 2021
Orbit: 745 x 777 km, 74.1° (Epoch: 23 October)

Event Time Altitude Azimuth Distance (km) Brightness Sun altitude
Rises 17:17:10 0° 330° (NNW) 3,257 7.7 -4.9°
Reaches altitude 10° 17:19:43 10° 322° (NW) 2,329 7.1 -5.3°
Maximum altitude 17:24:26 34° 259° (WSW) 1,265 6.1 -6.1°
Drops below altitude 10° 17:29:09 10° 195° (SSW) 2,321 6.7 -6.9°
Sets 17:31:42 0° 187° (S) 3,244 7.3 -7.4°
